www.pogodaiklimat.ru

Погода и климат >> Архив погоды >> Россия >> Красноярский край >> Остров Визе


АРХИВ ПОГОДЫ на Острове Визе

Время (UTC), дата Ветер
(напр.,м/с)
 
Видим.   Явления Облачность Т
(С)
Тd
(С)
f
(%)
Тe
(С)
Тes
(С)
Комфортность P
(гПа)
Po
(гПа)
Тmin
(С)
Tmax
(С)
R
(мм)
R24
(мм)
S
(см)
00 15.09 В 5 23 км 9/9 600 м
[Sc]
-1.4 -3.1 88 -8 -8 по сезону 1024.8 1022.9 -1.8 0
03 15.09 В 5 25 км в посл. час ливневой снег 9/9 480 м
[Cb cap]
-2.5 -3.8 91 -9 -9 по сезону 1024.6 1022.7 -2.5
06 15.09 В 8-10
{10}
9000 м слаб. ливневой снег 9/9 540 м
[Cb cap]
-1.7 -3.1 90 -10 -10 по сезону 1024.5 1022.6
09 15.09 ЮВ 7
{11}
20 км {ливн. осадки} 9/9 500 м
[Sc]
-0.6 -3.0 84 -8 -8 по сезону 1024.7 1022.8
12 15.09 16 км {ливн. осадки} н/о -1.3 -2.9 89 -8 -8 по сезону 1025.4 1023.5 -0.6 0.4
15 15.09 20 км н/о -1.1 -2.8 88 -8 -8 по сезону 1025.8 1023.9
18 15.09 В 6 20 км 9/9 450 м
[Sc]
-1.7 -3.0 91 -9 -9 по сезону 1026.0 1024.1
21 15.09 20 км н/о -1.5 -2.4 94 -9 -9 по сезону 1026.0 1024.1
00 16.09 -10
{10}
21 км н/о -1.5 -3.6 86 -9 -9 по сезону 1026.1 1024.2 -2.0 <0.5
03 16.09 В 8
{10}
9000 м слаб. ливневой снег 9/9 360 м
[Cb cap]
-1.6 -2.2 96 -10 -10 по сезону 1025.8 1023.9 -2.3
06 16.09 -10
{11}
20 км {ливн. осадки} н/о -1.1 -1.8 95 -9 -9 по сезону 1025.4 1023.5
09 16.09 В 7
{10}
22 км 9/9 540 м
[Sc]
-1.5 -2.9 90 -9 -9 по сезону 1025.2 1023.3
12 16.09 В 8-10
{10}
9000 м слаб. ливневой снег {метель} 9/9 450 м
[Cb cap]
-1.9 -3.1 91 -10 -10 по сезону 1024.4 1022.5 -1.0 0.1
15 16.09 В 7
{11}
2000 м ливневой снег {метель} 9/9 400 м
[Cb cap]
-2.1 -3.0 94 -10 -10 по сезону 1023.6 1021.7
18 16.09 В 8-10
{10}
4000 м позёмок {ливн. осадки} 9/9 450 м
[Sc]
-1.3 -2.8 90 -9 -9 по сезону 1022.3 1020.4
21 16.09 -11
{12}
20 км позёмок н/о -0.8 -1.1 98 -9 -9 по сезону 1021.1 1019.3
00 17.09 В 10-13
{13}
17 км позёмок 9/9 180 м
[Sc]
-0.4 -0.5 99 -9 -9 по сезону 1020.1 1018.3 -2.6 0.0 0
03 17.09 В 8-10
{13}
19 км {метель} 9/9 210 м
[Sc]
-0.7 -1.1 97 -9 -9 по сезону 1019.4 1017.6
06 17.09 В 9-11
{12}
20 км {ливн. осадки, метель} 9/9 300 м
[Cb cap]
-1.3 -2.2 94 -10 -10 по сезону 1017.9 1016.1
09 17.09 В 9-11
{12}
23 км 9/9 450 м
[Sc]
-0.4 -1.5 92 -9 -9 по сезону 1015.8 1014.0
12 17.09 В 8-10
{12}
24 км 9/9 330 м
[Sc]
-0.7 -1.2 96 -9 -9 по сезону 1014.2 1012.4 -0.2 0.1
15 17.09 В 8-10
{12}
4000 м слаб. ливневой снег 9/9 330 м
[Cb cap]
-1.1 -1.4 98 -9 -9 по сезону 1012.6 1010.8
18 17.09 В 8-10
{11}
20 км в посл. час ливневой снег 9/9 300 м
[Cb cap]
-1.5 -1.5 100 -10 -10 по сезону 1010.8 1009.0
21 17.09 В 6
{10}
20 км 9/9 400 м
[Sc]
-1.6 -1.6 100 -9 -9 по сезону 1009.2 1007.4
00 18.09 В 9-11
{12}
9000 м слаб. переохл. морось (гололёд) [диам. гололёда 4 мм] 10/10 150 м
[St]
-0.9 -0.9 100 -9 -9 по сезону 1007.5 1005.7 -1.8 0.1 0
03 18.09 В 11-14
{14}
9000 м слаб. переохл. морось (гололёд) [диам. гололёда 4 мм] 10/10 150 м
[St]
-0.6 -0.7 99 -10 -10 по сезону 1005.2 1003.4
06 18.09 В 11-13
{14}
7000 м слаб. ливневой снег {морось} [диам. гололёда 4 мм] 9/9 400 м
[Cb cap]
+0.2 +0.2 100 -9 -9 по сезону 1002.5 1000.7
09 18.09 ЮВ 9-11
{13}
7000 м дымка {ливн. осадки} 10/10 90 м
[St]
+0.6 +0.6 100 -7 -7 по сезону 1001.6 999.8
12 18.09 Ю 8-10
{12}
23 км {ливн. осадки} 9/9 300 м
[Sc]
+0.5 +0.3 99 -7 -7 по сезону 1002.9 1001.1 +0.9 0.6
15 18.09 Ю 6
{10}
20 км 9/9 360 м
[Sc]
+0.7 +0.2 96 -6 -6 по сезону 1004.6 1002.8
18 18.09 Ю 2 20 км 9/6 420 м
[Sc Ac trans]
+0.9 0.0 94 -3 -3 тепло 1006.1 1004.3
21 18.09 ЮВ 5 500 м туман ?/? +0.7 +0.7 100 -6 -6 по сезону 1007.2 1005.4
00 19.09 ЮВ 6 900 м туман туман ?/? +0.2 +0.2 100 -7 -7 по сезону 1007.9 1006.1 -0.8 2 0
03 19.09 В 4 20 км {туман} 9/9 450 м
[Sc Ac trans]
+0.3 +0.3 100 -5 -5 по сезону 1008.2 1006.4
06 19.09 В 5 900 м туман ?/? +0.5 +0.5 100 -6 -6 по сезону 1007.3 1005.5
09 19.09 В 8-10
{10}
20 км {туман} 9/9 480 м
[Sc]
+0.7 +0.7 100 -7 -7 по сезону 1006.5 1004.7
12 19.09 В 8-11
{12}
21 км {туман} 8/4 600 м
[Sc Ac As]
+0.7 +0.4 98 -7 -7 по сезону 1005.9 1004.1 +0.8
15 19.09 ЮВ 9-12
{12}
20 км 4/0
[Ac trans]
+0.9 +0.4 96 -7 -7 по сезону 1005.3 1003.5
18 19.09 ЮВ 9-11
{13}
20 км 9/9 300 м
[Sc]
+1.0 +0.8 99 -7 -7 по сезону 1004.9 1003.1
21 19.09 ЮВ 10-13
{13}
4000 м слаб. морось 10/10 120 м
[St]
+1.1 +1.1 100 -7 -7 по сезону 1004.7 1002.9
00 20.09 ЮВ 8-10
{13}
6000 м слаб. морось 10/10 150 м
[St]
+1.1 +1.1 100 -6 -6 по сезону 1005.1 1003.3 +0.7 0.3 0
03 20.09 ЮВ 8-10
{10}
1500 м дымка 10/10 180 м
[St]
+0.9 +0.9 100 -7 -7 по сезону 1005.2 1003.4
06 20.09 ЮВ 6
{10}
1700 м дымка 10/10 120 м
[St]
+1.0 +1.0 100 -6 -6 по сезону 1005.5 1003.7
09 20.09 ЮВ 4 6000 м дымка {туман} 10/10 150 м
[St]
+0.8 +0.8 100 -5 -5 по сезону 1005.8 1004.0
12 20.09 ЮВ 6 700 м слаб. морось {туман} туман ?/? +0.5 +0.5 100 -6 -6 по сезону 1006.3 1004.5 +1.2 0.0
15 20.09 В 5 4000 м дымка {ливн. осадки} туман 10/10 150 м
[St]
+0.4 +0.4 100 -6 -6 по сезону 1005.7 1003.9
18 20.09 В 5 6000 м дымка {ливн. осадки} 10/10 120 м
[St]
+0.3 +0.3 100 -6 -6 по сезону 1005.3 1003.5
21 20.09 В 7 8000 м дымка 10/10 150 м
[St]
+0.5 +0.5 100 -7 -7 по сезону 1004.8 1003.0
00 21.09 17 км н/о +0.5 +0.5 100 -7 -7 по сезону 1004.4 1002.6 +0.1 0.3 0
03 21.09 В 8 8000 м слаб. ливневой снег 9/9 150 м
[Cb cap]
+0.4 +0.4 100 -7 -7 по сезону 1004.0 1002.2
06 21.09 В 9-11
{12}
20 км {ливн. осадки} 9/9 180 м
[Sc]
+0.5 +0.5 100 -8 -8 по сезону 1003.8 1002.0
09 21.09 В 9-12
{12}
21 км 9/9 300 м
[Sc]
+0.3 0.0 98 -8 -8 по сезону 1004.4 1002.6
12 21.09 СВ 10-12
{12}
20 км в посл. час ливневой снег {морось} 9/8 630 м
[Cb cap Ac trans]
+0.5 -0.1 96 -8 -8 по сезону 1004.4 1002.6 +0.6 0.0
15 21.09 СВ 7
{12}
20 км 8/0
[Ac trans]
+0.2 -0.2 97 -7 -7 по сезону 1004.0 1002.2
18 21.09 СВ 8-10
{11}
20 км 8/0
[Ac trans]
+0.2 -0.1 98 -7 -7 по сезону 1003.7 1001.9
21 21.09 СВ 8-10
{11}
20 км 9/8 330 м
[Sc Ac trans]
+0.1 -0.6 95 -8 -8 по сезону 1003.5 1001.7

 

Местоположение метеостанции Остров Визе (Красноярский край, Россия): широта 79.50 долгота 76.98 высота над уровнем моря 14 м.

В архиве по умолчанию представлена погода на Острове Визе за последнюю неделю. Архивные данные за месяц целиком и за предыдущие месяцы, начиная с января 2011 года, Вы можете получить, выбрав интересующий диапазон дат из раскрывающегося списка и нажав кнопку "Ввод!".


*Определитесь, кто Вы:
робот инопланетянин человек

Внимание! Время в таблицах - всемирное. Для получения местного времени необходимо прибавить поправку, которая равна 7 ч.

Смотрите также архив погоды в соседних городах и на ближайших метеорологических станциях:

Погода на Острове Уединения (Красноярский край, Россия) (251 км)
Погода на Острове Голомянном (Красноярский край, Россия) (275 км)
Погода на Мысе Желания (Архангельская область, Россия) (341 км)
Погода на Острове Хейса (Архангельская область, Россия) (382 км)
Погода на Островах Известий ЦИК (Красноярский край, Россия) (419 км)
Погода на Мысе Баранова (Красноярский край, Россия) (501 км)
Погода на Острове Русском (Красноярский край, Россия) (507 км)
Погода на Мысе Стерлегова (Красноярский край, Россия) (536 км)
Погода на Мысе Челюскин (Красноярский край, Россия) (625 км)
Погода в Хастыре (Красноярский край, Россия) (645 км)

Пояснения к столбцам:

Ветер - указаны скорость ветра в м/с - средняя за 10 мин, порывы в срок и между сроками (в фигурных скобках) и направление, откуда дует ветер: С - северный, СВ - северо-восточный, В - восточный, ЮВ - юго-восточный, Ю - южный, ЮЗ - юго-западный, З - западный, СЗ - северо-западный.
Видимость - горизонтальная дальность видимости в метрах или километрах. При видимости от 1 до 10 км при отсутствии осадков обычно наблюдается дымка, при ухудшении видимости до 1 км и менее - туман. В сухую погоду видимость может ухудшаться дымом, пылью или мглою.
Явления - указаны атмосферные явления, наблюдавшиеся в срок или в последний час перед сроком; фигурными скобками обозначены явления, наблюдавшиеся между сроками (за 1-3 часа до срока); квадратными скобками обозначены град или гололедные отложения с указанием их диаметра в мм.
Облачность - указаны через наклонную черту общая и нижняя облачность в баллах и высота нижней границы облаков в метрах; квадратными скобками обозначены формы облаков: Ci - перистые, Cs - перисто-слоистые, Cc - перисто-кучевые, Ac - высококучевые, As - высокослоистые, Sc - слоисто-кучевые, Ns - слоисто-дождевые, Cu - кучевые, Cb - кучево-дождевые. Подробнее классификацию облаков см. в Атласе облаков (PDF).
T - Температура воздуха - температура, измеренная на высоте 2 м над землей.
Td - Температура точки росы - температура, при понижении до которой содержащийся в воздухе водяной пар достигнет насыщения.
f - Относительная влажность воздуха - влажноcть воздуха, измеренная на высоте 2 м над землей.
Te - Эффективная температура - температура, которую ощущает одетый по сезону человек в тени. Характеристика душности погоды. При расчете учитывается влияние влажности воздуха и скорости ветра на теплоощущения человека.
Tes - Эффективная температура на солнце - температура, которую ощущает человек, с поправкой на солнечный нагрев. Характеристика знойности погоды. Зависит от высоты солнца над горизонтом, облачности и скорости ветра. Ночью, в пасмурную погоду, а также при ветре 12 м/с и более поправка равна нулю.
P - Атмосферное давление - приведенное к уровню моря атмосферное давление.
Po - Атмосферное давление - измеренное на уровне метеостанции атмосферное давление.
Tmin - Минимальная температура - минимум температуры воздуха на высоте 2 м над землей.
Tmax - Максимальная температура - максимум температуры воздуха на высоте 2 м над землей.
R - Количество осадков - Количество выпавших осадков за период времени, мм. При наведении курсора мыши на число - период времени, за который выпало указанное количество осадков.
R24 - Количество осадков - Количество выпавших осадков за 24 часа, мм.
S - Снежный покров - Высота снежного покрова, см. При наведении курсора мыши на число - состояние снежного покрова и степень покрытия местности в баллах.